This demonstration page uses our WeatherBlox Daily Observations layout. Learn more.

Left ArrowRight Arrow

Hourly Observations for June 6, 2019

Temp ( °F °C ) Dew Point ( °F °C ) Humidity (%) Winds ( mph kmh ) Pressure ( in mb ) Visibility ( mi km ) Precip ( " mm )
12:53 am 00:53 Clear 54 12.2 41 5 62 62 Calm 29.77 1008 10 16 0.00 0.00
1:53 am 01:53 Clear 55 12.8 45 7.2 69 69 Calm 29.75 1007 10 16 0.00 0.00
2:53 am 02:53 Mostly Clear 53 11.7 43 6.1 69 69 ENE 3 6 29.73 1007 10 16 0.00 0.00
3:53 am 03:53 Partly Cloudy 54 12.2 44 6.7 69 69 Calm 29.71 1006 10 16 0.00 0.00
4:53 am 04:53 Cloudy 63 17.2 41 5 45 45 NNE 7 11 29.71 1006 10 16 0.00 0.00
5:53 am 05:53 Sunny 58 14.4 46 7.8 65 65 E 8 13 29.70 1006 10 16 0.01 0.25
6:53 am 06:53 Sunny 58 14.4 47 8.3 67 67 SSE 3 6 29.73 1007 10 16 0.00 0.00
7:53 am 07:53 Sunny 63 17.2 47 8.3 56 56 E 3 6 29.72 1006 10 16 0.00 0.00
8:53 am 08:53 Sunny 65 18.3 45 7.2 49 49 WNW 3 6 29.72 1007 10 16 0.00 0.00
9:53 am 09:53 Mostly Sunny 69 20.6 46 7.8 44 44 WNW 10 17 29.72 1007 10 16 0.00 0.00
10:53 am 10:53 Sunny 69 20.6 47 8.3 45 45 W 10 17 29.71 1006 10 16 0.00 0.00
11:53 am 11:53 Sunny 71 21.7 46 7.8 41 41 W 6 9 29.70 1006 10 16 0.00 0.00
12:53 pm 12:53 Mostly Sunny 74 23.3 44 6.7 34 34 Calm 29.68 1005 10 16 0.00 0.00
1:53 pm 13:53 Sunny 77 25 43 6.1 30 30 VRB 6 9 29.66 1004 10 16 0.00 0.00
2:53 pm 14:53 Sunny 78 25.6 43 6.1 29 29 WSW 7 11 29.63 1003 10 16 0.00 0.00
3:53 pm 15:53 Sunny 80 26.7 42 5.6 26 26 WNW 8 13 29.60 1002 10 16 0.00 0.00
4:53 pm 16:53 Sunny 77 25 41 5 28 28 Calm 29.57 1002 10 16 0.00 0.00
5:53 pm 17:53 Sunny 77 25 41 5 28 28 WNW 5 7 29.56 1001 10 16 0.00 0.00
6:53 pm 18:53 Partly Cloudy 79 26.1 40 4.4 25 25 NNE 5 7 29.54 1000 10 16 0.00 0.00
7:53 pm 19:53 Mostly Cloudy 75 23.9 43 6.1 32 32 NNE 8 13 29.53 1000 10 16 0.00 0.00
8:53 pm 20:53 Sunny 72 22.2 44 6.7 37 37 N 10 17 29.50 999 10 16 0.00 0.00
9:53 pm 21:53 Mostly Clear 68 20 46 7.8 45 45 N 13 20 29.52 1000 10 16 0.00 0.00
10:53 pm 22:53 Clear 62 16.7 43 6.1 50 50 NNW 17 28 29.56 1001 10 16 0.00 0.00
11:45 pm 23:45 Mostly Cloudy with Nearby Thunderstorms 61 16 46 8 59 59 W 18 30 29.62 1003 10 16 0.00 0.00
11:53 pm 23:53 Cloudy with Nearby Thunderstorms 56 13.3 48 8.9 75 75 WNW 18 30 29.63 1004 4 6 0.04 1.02

Powered by AerisWeather